Location: Cubitt Town
(51.4833°N, 0.0000°E)
Time: 02:32:50
(UTC+00:00)

ISS - Pass Details

Date: 15 May 2026
Orbit: 413 x 422 km, 51.6° (Epoch: 8 June)

Event Time Altitude Azimuth Distance (km) Brightness Sun altitude
Rises 22:57:37 0° 284° (WNW) 2,354 0.4 -18.3°
Reaches altitude 10° 22:59:45 10° 278° (W) 1,490 -0.7 -18.4°
Enters shadow 23:02:22 40° 237° (WSW) 627 -3.1 -18.5°
